Regional Weather Roundup
Issued by NWS

Home | Current Version | Previous Version | Text Only | Print | Product List | Glossary On
Versions: 1 2 3 4 5 6 7 8 9 10 11 12 13 14 15 16 17 18 19 20 21 22 23 24 25 26 27 28 29 30 31 32 33 34 35 36 37 38 39 40 41 42 43 44 45 46 47 48 49 50
000
ASUS43 KFSD 282210
RWRSD

WEATHER ROUNDUP FOR SOUTH DAKOTA
NATIONAL WEATHER SERVICE SIOUX FALLS SD
400 PM CST TUE FEB 28 2017

NOTE: "FAIR" INDICATES FEW OR NO CLOUDS BELOW 12,000 FEET WITH NO
SIGNIFICANT WEATHER AND/OR OBSTRUCTIONS TO VISIBILITY.


SDZ001>005-009-010-012>017-282300-
NORTHWEST AND NORTH CENTRAL SOUTH DAKOTA

CITY           SKY/WX    TMP DP  RH WIND       PRES   REMARKS
BUFFALO          N/A     27  21  78 E5        29.68R WCI  22
FAITH            N/A     24  20  84 N5        29.77R WCI  18
MOBRIDGE       CLOUDY    33  19  56 NE12      29.77R WCI  24
$$

SDZ012>016-024>037-041>051-057-063-072>074-282300-
SOUTHWEST AND SOUTH CENTRAL SOUTH DAKOTA

CITY           SKY/WX    TMP DP  RH WIND       PRES   REMARKS
RAPID CTY ARPT CLOUDY    29  21  72 N7        29.74R WCI  22
PIERRE         CLOUDY    26  21  81 N6        29.78R WCI  19
CUSTER         CLOUDY    28  10  46 W17G24    29.63R WCI  16
ELLSWORTH AFB  CLOUDY    28  24  85 NE6       29.74R WCI  21
PHILIP         CLOUDY    27  26  96 NW9       29.79R WCI  18
PINE RIDGE     MOSUNNY   32  24  72 W9        29.74R WCI  24
SPEARFISH      FAIR      30  23  74 VRB5      29.70R WCI  25
WINNER         CLOUDY    34  29  82 N8        29.75R WCI  27
$$

SDZ004>011-016>023-039-040-282300-
NORTHEAST SOUTH DAKOTA

CITY           SKY/WX    TMP DP  RH WIND       PRES   REMARKS
ABERDEEN       CLOUDY    32  23  69 NE13      29.78S WCI  22
WATERTOWN      LGT SNOW  29  26  89 NE10      29.73R FOG     WCI  20
BROOKINGS      CLOUDY    31  28  89 N12       29.70R WCI  22
SISSETON         N/A     31  27  85 N14       29.78R WCI  21
$$

SDZ017-020-022-023-036>040-048>070-282300-
SOUTHEAST SOUTH DAKOTA

CITY           SKY/WX    TMP DP  RH WIND       PRES   REMARKS
SIOUX FALLS    CLOUDY    38  33  82 N13       29.70R
HURON          CLOUDY    28  24  85 NW12      29.76R WCI  18
CHAMBERLAIN    CLOUDY    29  27  90 N7        29.76R WCI  22
MITCHELL       CLOUDY    34  26  72 NW15      29.75R WCI  24
YANKTON        MOSUNNY   41  34  75 W14       29.69R
$$

ABBREVIATIONS USED IN REMARKS
   TC - TEMPERATURE IN CELSIUS
  WCI - WIND CHILL INDEX
   HX - HEAT INDEX
  VSB - VISIBILITY





USA.gov is the U.S. government's official web portal to all federal, state and local government web resources and services.